Regional Weather Roundup
Issued by NWS

Home | Current Version | Previous Version | Graphics & Text | Print | Product List | Glossary On
Versions: 1 2 3 4 5 6 7 8 9 10 11 12 13 14 15 16 17 18 19 20 21 22 23 24 25 26 27 28 29 30 31 32 33 34 35 36 37 38 39 40 41 42 43 44 45 46 47 48 49 50
897
ASUS43 KLMK 290710
RWRKY
KENTUCKY REGIONAL WEATHER ROUNDUP
NATIONAL WEATHER SERVICE LOUISVILLE KY
300 AM EDT MON MAY 29 2017

NOTE "FAIR" INDICATES FEW OR NO CLOUDS BELOW 12,000 FEET
WITH NO SIGNIFICANT WEATHER AND/OR OBSTRUCTIONS TO VISIBILITY.

KYZ001>023-026-027-061>063-070>075-290800-
WESTERN AND SOUTH CENTRAL KENTUCKY

CITY           SKY/WX    TMP DP  RH WIND       PRES   REMARKS
PADUCAH        MOCLDY    65  62  90 SW5       29.92R
HENDERSON      CLOUDY    64  63  96 SW5       29.90S
OWENSBORO      CLOUDY    64  63  96 S3        29.90S FOG
HOPKINSVILLE   MOCLDY    65  65 100 SW5       29.94R
BOWLING GREEN  CLOUDY    66  64  93 SW3       29.92S
GLASGOW        PTCLDY   N/A N/A N/A CALM      29.92F
$$

KYZ024-025-028>034-038-045-046-053-290800-
NORTH CENTRAL KENTUCKY

CITY           SKY/WX    TMP DP  RH WIND       PRES   REMARKS
LOUISVILLE/SDF CLOUDY    67  65  93 W7        29.88S
LOUISVILLE/LOU PTCLDY    67  66  97 CALM      29.89R
FORT KNOX      PTCLDY    65  64  99 W6        29.88S
$$

KYZ035>037-039>044-047>052-055>060-089>105-290800-
NORTHEAST KENTUCKY

CITY           SKY/WX    TMP DP  RH WIND       PRES   REMARKS
LEXINGTON      CLOUDY    65  62  90 W5        29.91R
COVINGTON      PTCLDY    61  60  97 SW6       29.87R
FRANKFORT      CLOUDY    66  62  87 CALM      29.89R
$$

KYZ054-064>069-076>088-106>120-290800-
SOUTHEAST KENTUCKY

CITY           SKY/WX    TMP DP  RH WIND       PRES   REMARKS
JACKSON        CLOUDY    66  62  87 VRB3      29.92R
LONDON         CLOUDY    67  61  81 W6        29.94R
SOMERSET       CLOUDY    61  61 100 CALM      29.95R
MIDDLESBORO    CLOUDY    63  63  99 CALM      29.95S
MONTICELLO     CLOUDY    66  63  90 W12       29.95S
$$





USA.gov is the U.S. government's official web portal to all federal, state and local government web resources and services.